Weather History for KDIJ - April, 2014

Change the Weather History Date:

Saturday, April 26, 2014

  Actual Average (KRXE) Record (KRXE)
Temperature  
Mean Temperature 37 °F 46 °F  
Max Temperature 42 °F 60 °F 71 °F (2004)
Min Temperature 32 °F 33 °F 23 °F (2008)
Degree Days  
Heating Degree Days 28 19  
Month to date heating degree days 566  
Since 1 July heating degree days 7495  
Cooling Degree Days 0 0  
Month to date cooling degree days 0  
Year to date cooling degree days 0  
Moisture  
Dew Point 35 °F    
Average Humidity 98    
Maximum Humidity 100    
Minimum Humidity 81    
Precipitation  
Precipitation 0.57 in 0.05 in 0.62 in (1989)
Month to date precipitation 1.26  
Year to date precipitation 3.89  
Sea Level Pressure  
Sea Level Pressure 29.51 in    
Wind  
Wind Speed 8 mph (SW)    
Max Wind Speed 14 mph    
Max Gust Speed -    
Visibility 4 miles    
Events Fog , Rain , Snow    
T = Trace of Precipitation, MM = Missing Value Source: NWS Daily Summary

Daily Weather History Graph

Daily Weather History Graph

Search for Another Location

Airport or City:

Trip Planner

Search our weather history database for the weather conditions in past years. The results will help you decide how hot, cold, wet, or windy it might be!

Date:

Astronomy

Apr. 26, 2014 Rise Set
Actual Time 6:23 AM MDT 8:21 PM MDT
Civil Twilight 5:52 AM MDT 8:52 PM MDT
Nautical Twilight 5:14 AM MDT 9:30 PM MDT
Astronomical Twilight 4:33 AM MDT 10:12 PM MDT
Moon 4:55 AM MDT (4/26) 5:48 PM MDT (4/26)
Length of Visible Light 14h 59m
Length of Day
13h 57m
Waning Crescent, 8% of the Moon is Illuminated
Apr 26
Waning Crescent
Apr 29
New
May 6
First Quarter
May 14
Full
May 21
Last Quarter

Hourly Weather History & Observations

Time (MDT) Temp. Windchill Dew Point Humidity Pressure Visibility Wind Dir Wind Speed Gust Speed Precip Events Conditions
12:45 AM 42.8 °F 37.0 °F 37.4 °F 81% 29.60 in 6.0 mi SSW 10.4 mph - 0.00 in Rain Light Rain
12:56 AM 41.0 °F 34.3 °F 36.9 °F 85% 29.47 in 5.0 mi SSW 11.5 mph - 0.01 in Rain Light Rain
1:41 AM 39.2 °F 31.2 °F 37.4 °F 93% 29.59 in 8.0 mi SW 13.8 mph - 0.00 in   Overcast
1:56 AM 37.9 °F 29.6 °F 36.0 °F 93% 29.46 in 10.0 mi SW 13.8 mph - 0.00 in   Mostly Cloudy
2:56 AM 36.0 °F 30.3 °F 34.0 °F 93% 29.44 in 10.0 mi SE 6.9 mph - N/A   Clear
3:56 AM 36.9 °F 32.2 °F 34.9 °F 93% 29.45 in 10.0 mi SE 5.8 mph - N/A   Mostly Cloudy
4:56 AM 37.9 °F 35.5 °F 34.0 °F 86% 29.48 in 10.0 mi SSW 3.5 mph - N/A   Overcast
5:56 AM 36.9 °F 32.2 °F 34.9 °F 93% 29.47 in 10.0 mi NE 5.8 mph - N/A   Scattered Clouds
6:56 AM 34.9 °F 29.0 °F 34.9 °F 100% 29.47 in 9.0 mi North 6.9 mph - N/A   Scattered Clouds
7:56 AM 36.9 °F 30.1 °F 36.9 °F 100% 29.45 in 9.0 mi NNW 9.2 mph - N/A   Scattered Clouds
8:06 AM 37.4 °F 29.8 °F 35.6 °F 93% 29.55 in 9.0 mi NW 11.5 mph - N/A   Mostly Cloudy
8:56 AM 36.9 °F 28.7 °F 36.0 °F 97% 29.45 in 8.0 mi NW 12.7 mph - N/A   Overcast
9:06 AM 37.4 °F 30.3 °F 35.6 °F 93% 29.55 in 6.0 mi NNW 10.4 mph - 0.00 in   Overcast
9:13 AM 35.6 °F 27.5 °F 35.6 °F 100% 29.55 in 4.0 mi NNW 11.5 mph - 0.00 in   Overcast
9:24 AM 35.6 °F 27.5 °F 35.6 °F 100% 29.54 in 2.5 mi NNW 11.5 mph - 0.00 in   Overcast
9:56 AM 36.0 °F 29.6 °F 36.0 °F 100% 29.44 in 4.0 mi NNW 8.1 mph - 0.02 in Rain Light Rain
10:15 AM 35.6 °F 29.2 °F 35.6 °F 100% 29.54 in 2.5 mi NW 8.1 mph - 0.00 in Rain Light Rain
10:56 AM 34.9 °F 28.3 °F 34.9 °F 100% 29.45 in 2.0 mi WNW 8.1 mph - 0.04 in Rain Light Rain
11:11 AM 35.6 °F 29.9 °F 35.6 °F 100% 29.54 in 2.0 mi WNW 6.9 mph - 0.00 in Snow Light Snow
11:19 AM 33.8 °F 28.6 °F 33.8 °F 100% 29.53 in 1.8 mi NW 5.8 mph - 0.01 in Snow Light Snow
11:39 AM 33.8 °F 28.6 °F 33.8 °F 100% 29.53 in 0.8 mi WNW 5.8 mph - 0.03 in Snow Light Snow
11:48 AM 33.8 °F 29.6 °F 33.8 °F 100% 29.53 in 0.8 mi WNW 4.6 mph - 0.04 in Snow Light Snow
11:56 AM 32.9 °F 28.5 °F 32.9 °F 100% 29.44 in 0.5 mi West 4.6 mph - 0.04 in Fog , Snow Light Snow
12:05 PM 33.8 °F 29.6 °F 33.8 °F 100% 29.53 in 0.8 mi West 4.6 mph - 0.01 in Snow Light Snow
12:56 PM 32.9 °F - 32.9 °F 100% 29.43 in 0.8 mi Calm Calm - 0.06 in Snow Light Snow
1:04 PM 33.8 °F - 33.8 °F 100% 29.51 in 1.0 mi Calm Calm - 0.01 in Snow Light Snow
1:13 PM 33.8 °F - 33.8 °F 100% 29.51 in 1.5 mi Calm Calm - 0.01 in Snow Light Snow
1:32 PM 35.6 °F - 35.6 °F 100% 29.51 in 3.0 mi Calm Calm - 0.02 in Snow Light Snow
1:40 PM 35.6 °F 32.8 °F 35.6 °F 100% 29.50 in 4.0 mi WSW 3.5 mph - 0.02 in   Overcast
1:56 PM 34.9 °F 32.0 °F 34.9 °F 100% 29.42 in 5.0 mi WSW 3.5 mph - 0.02 in   Overcast
2:03 PM 35.6 °F - 35.6 °F 100% 29.50 in 4.0 mi Calm Calm - 0.00 in   Overcast
2:49 PM 35.6 °F - 35.6 °F 100% 29.51 in 1.8 mi Calm Calm - 0.01 in   Overcast
2:56 PM 36.0 °F - 36.0 °F 100% 29.44 in 1.8 mi Calm Calm - 0.02 in   Overcast
3:03 PM 35.6 °F - 35.6 °F 100% 29.51 in 2.5 mi Calm Calm - 0.01 in   Overcast
3:20 PM 37.4 °F 33.8 °F 37.4 °F 100% 29.52 in 1.8 mi WNW 4.6 mph - 0.02 in   Overcast
3:56 PM 36.9 °F 34.3 °F 36.0 °F 97% 29.44 in 2.0 mi WNW 3.5 mph - 0.05 in Rain Light Rain
4:16 PM 37.4 °F 34.9 °F 35.6 °F 93% 29.52 in 3.0 mi NW 3.5 mph - 0.02 in Rain Light Rain
4:56 PM 36.9 °F 33.1 °F 36.0 °F 97% 29.45 in 2.0 mi East 4.6 mph - 0.04 in Rain Light Rain
5:56 PM 34.9 °F 29.9 °F 34.9 °F 100% 29.48 in 2.5 mi SE 5.8 mph - 0.02 in Rain Light Rain
6:10 PM 35.6 °F 31.7 °F 35.6 °F 100% 29.56 in 2.0 mi ESE 4.6 mph - 0.01 in Snow Light Snow
6:17 PM 35.6 °F 30.7 °F 35.6 °F 100% 29.56 in 2.0 mi ESE 5.8 mph - 0.02 in   Overcast
6:56 PM 34.9 °F 26.6 °F 34.9 °F 100% 29.49 in 2.5 mi SSE 11.5 mph - 0.04 in   Overcast
7:15 PM 35.6 °F 27.5 °F 35.6 °F 100% 29.56 in 4.0 mi SSE 11.5 mph - 0.00 in   Overcast
7:56 PM 36.0 °F 28.0 °F 34.9 °F 96% 29.48 in 5.0 mi South 11.5 mph - 0.02 in   Overcast
8:56 PM 36.0 °F 28.0 °F 34.9 °F 96% 29.49 in 7.0 mi South 11.5 mph - 0.00 in   Overcast
9:56 PM 34.9 °F 26.6 °F 34.9 °F 100% 29.53 in 2.5 mi South 11.5 mph - 0.04 in Snow Light Snow
10:23 PM 33.8 °F 27.0 °F 33.8 °F 100% 29.61 in 2.0 mi SSW 8.1 mph - 0.03 in Snow Light Snow
10:30 PM 33.8 °F 26.4 °F 33.8 °F 100% 29.61 in 1.5 mi South 9.2 mph - 0.04 in Snow Light Snow
10:37 PM 33.8 °F 26.4 °F 33.8 °F 100% 29.61 in 1.0 mi South 9.2 mph - 0.06 in Snow Light Snow
10:45 PM 33.8 °F 27.7 °F 33.8 °F 100% 29.61 in 0.8 mi South 6.9 mph - 0.06 in Snow Light Snow
10:56 PM 32.9 °F 26.7 °F 32.9 °F 100% 29.56 in 0.8 mi SSE 6.9 mph - 0.08 in Snow Light Snow
11:23 PM 33.8 °F 28.6 °F 33.8 °F 100% 29.62 in 1.0 mi South 5.8 mph - 0.03 in Snow Light Snow
11:32 PM 32.0 °F 26.4 °F 32.0 °F 100% 29.62 in 0.8 mi South 5.8 mph - 0.04 in Snow Light Snow
11:56 PM 32.0 °F 24.8 °F 32.0 °F 100% 29.57 in 1.0 mi South 8.1 mph - 0.07 in Snow Light Snow